TimePDT,TemperatureF,Dew PointF,Humidity,Sea Level PressureIn,VisibilityMPH,Wind Direction,Wind SpeedMPH,Gust SpeedMPH,PrecipitationIn,Events,Conditions,WindDirDegrees,DateUTC
12:07 AM,53.6,51.8,94,29.98,5.0,Calm,Calm,-,N/A,Rain,Light Rain,10,2012-11-03 07:07:00
12:09 AM,53.6,51.8,94,29.98,5.0,Calm,Calm,-,N/A,,Overcast,360,2012-11-03 07:09:00
12:13 AM,53.6,51.8,94,29.98,5.0,North,2.3,-,N/A,Rain,Light Rain,360,2012-11-03 07:13:00
12:23 AM,51.8,51.8,100,29.98,5.0,WNW,2.3,-,N/A,,Overcast,300,2012-11-03 07:23:00
12:33 AM,53.6,51.8,94,29.98,4.0,Calm,Calm,-,N/A,Rain,Light Rain,10,2012-11-03 07:33:00
12:54 AM,53.6,51.8,94,29.97,8.0,WNW,3.5,-,N/A,,Overcast,290,2012-11-03 07:54:00
12:58 AM,52.7,52.5,99,29.99,8.0,NNW,4.6,-,0.00,,Overcast,330,2012-11-03 07:58:00
1:18 AM,51.8,51.8,100,29.98,7.0,Calm,Calm,-,N/A,Rain,Light Rain,110,2012-11-03 08:18:00
1:32 AM,51.8,51.8,100,29.98,8.0,Variable,1.2,-,N/A,,Overcast,0,2012-11-03 08:32:00
1:42 AM,51.8,51.8,100,29.98,8.0,SE,2.3,-,N/A,,Overcast,140,2012-11-03 08:42:00
1:47 AM,51.8,51.8,100,29.98,7.0,SE,2.3,-,N/A,,Overcast,130,2012-11-03 08:47:00
1:58 AM,52.2,52.0,99,29.99,5.0,SE,2.3,-,0.00,,Overcast,140,2012-11-03 08:58:00
2:19 AM,51.8,51.8,100,29.98,5.0,ESE,2.3,-,N/A,,Overcast,110,2012-11-03 09:19:00
2:39 AM,51.8,51.8,100,29.98,6.0,Calm,Calm,-,N/A,,Overcast,30,2012-11-03 09:39:00
2:44 AM,51.8,51.8,100,29.98,6.0,SE,1.2,-,N/A,,Overcast,130,2012-11-03 09:44:00
2:51 AM,51.8,51.8,100,29.98,5.0,SE,3.5,-,N/A,Rain,Light Rain,140,2012-11-03 09:51:00
2:58 AM,52.5,52.3,99,29.99,5.0,SE,2.3,-,0.00,Rain,Light Rain,140,2012-11-03 09:58:00
3:06 AM,51.8,51.8,100,29.98,6.0,SE,3.5,-,N/A,,Overcast,140,2012-11-03 10:06:00
3:16 AM,51.8,51.8,100,29.99,6.0,South,3.5,-,N/A,Rain,Light Rain,180,2012-11-03 10:16:00
3:21 AM,51.8,51.8,100,29.99,6.0,South,3.5,-,N/A,,Light Drizzle,180,2012-11-03 10:21:00
3:26 AM,51.8,51.8,100,29.99,7.0,South,2.3,-,N/A,,Overcast,180,2012-11-03 10:26:00
3:58 AM,52.5,52.3,99,30.01,10.0,SE,4.6,-,0.00,,Overcast,140,2012-11-03 10:58:00
4:58 AM,52.7,52.5,99,30.01,10.0,SE,2.3,-,N/A,,Overcast,140,2012-11-03 11:58:00
5:58 AM,52.5,52.3,99,30.03,10.0,SE,2.3,-,N/A,,Overcast,130,2012-11-03 12:58:00
6:58 AM,52.5,52.3,99,30.01,10.0,SSW,2.3,-,N/A,,Overcast,210,2012-11-03 13:58:00
7:28 AM,51.8,51.8,100,30.01,10.0,South,2.3,-,N/A,,Overcast,170,2012-11-03 14:28:00
7:58 AM,52.2,52.0,99,30.04,10.0,South,3.5,-,0.01,,Overcast,180,2012-11-03 14:58:00
8:58 AM,53.8,53.4,99,30.04,10.0,South,8.1,-,N/A,,Overcast,170,2012-11-03 15:58:00
9:38 AM,55.4,53.6,94,30.03,10.0,South,9.2,-,N/A,,Overcast,190,2012-11-03 16:38:00
9:43 AM,55.4,53.6,94,30.04,10.0,SSW,8.1,-,N/A,,Overcast,200,2012-11-03 16:43:00
9:53 AM,55.4,53.6,94,30.04,10.0,South,8.1,-,N/A,,Overcast,180,2012-11-03 16:53:00
9:58 AM,55.0,53.6,95,30.05,10.0,South,6.9,-,N/A,,Overcast,180,2012-11-03 16:58:00
10:08 AM,55.4,53.6,94,30.04,10.0,South,5.8,-,N/A,,Overcast,180,2012-11-03 17:08:00
10:58 AM,56.7,54.7,93,30.06,10.0,SSW,5.8,-,N/A,,Overcast,200,2012-11-03 17:58:00
11:58 AM,57.7,55.4,92,30.06,10.0,South,6.9,-,N/A,,Overcast,190,2012-11-03 18:58:00
12:58 PM,59.9,55.2,84,30.07,10.0,South,13.8,20.7,N/A,,Overcast,190,2012-11-03 19:58:00
1:58 PM,60.4,54.3,80,30.07,10.0,South,13.8,-,N/A,,Overcast,190,2012-11-03 20:58:00
2:58 PM,60.8,53.6,77,30.08,10.0,South,13.8,-,N/A,,Mostly Cloudy,190,2012-11-03 21:58:00
3:33 PM,60.8,53.6,77,30.08,10.0,SSW,18.4,-,N/A,,Overcast,200,2012-11-03 22:33:00
3:45 PM,59.0,53.6,82,30.09,10.0,SSW,15.0,23.0,N/A,,Light Drizzle,200,2012-11-03 22:45:00
3:54 PM,59.0,53.6,82,30.09,10.0,SSW,12.7,-,N/A,,Overcast,200,2012-11-03 22:54:00
3:58 PM,59.5,54.0,82,30.10,10.0,SSW,12.7,-,0.00,,Overcast,200,2012-11-03 22:58:00
4:11 PM,59.0,53.6,82,30.10,10.0,SSW,12.7,-,N/A,,Overcast,200,2012-11-03 23:11:00
4:14 PM,59.0,55.4,88,30.11,9.0,SSW,10.4,-,N/A,Rain,Light Rain,200,2012-11-03 23:14:00
4:22 PM,59.0,55.4,88,30.11,10.0,South,11.5,-,N/A,,Overcast,190,2012-11-03 23:22:00
4:42 PM,59.0,55.4,88,30.12,10.0,South,9.2,-,N/A,,Overcast,190,2012-11-03 23:42:00
4:58 PM,58.5,55.0,88,30.13,10.0,SSW,10.4,-,0.00,,Overcast,200,2012-11-03 23:58:00
5:58 PM,58.1,54.9,89,30.15,10.0,South,9.2,-,N/A,,Overcast,190,2012-11-04 00:58:00
6:00 PM,57.2,55.4,94,30.14,10.0,South,9.2,-,N/A,Rain,Light Rain,190,2012-11-04 01:00:00
6:16 PM,57.2,55.4,94,30.14,10.0,South,9.2,-,N/A,,Overcast,190,2012-11-04 01:16:00
6:42 PM,57.2,55.4,94,30.16,10.0,SSW,8.1,-,N/A,Rain,Light Rain,210,2012-11-04 01:42:00
6:52 PM,57.2,55.4,94,30.16,10.0,SW,8.1,-,N/A,,Mostly Cloudy,220,2012-11-04 01:52:00
6:58 PM,57.2,55.4,94,30.17,10.0,SW,6.9,-,0.00,,Overcast,220,2012-11-04 01:58:00
7:04 PM,57.2,55.4,94,30.16,10.0,SSW,8.1,-,N/A,,Light Drizzle,210,2012-11-04 02:04:00
7:43 PM,57.2,55.4,94,30.16,10.0,SSW,5.8,-,N/A,,Overcast,200,2012-11-04 02:43:00
7:58 PM,55.9,55.2,97,30.17,10.0,South,6.9,-,0.01,,Mostly Cloudy,170,2012-11-04 02:58:00
8:58 PM,56.1,55.4,97,30.17,10.0,SSW,4.6,-,N/A,,Overcast,210,2012-11-04 03:58:00
9:58 PM,54.7,54.3,99,30.17,10.0,SSE,3.5,-,N/A,,Overcast,150,2012-11-04 04:58:00
10:58 PM,54.7,54.5,99,30.18,10.0,ESE,2.3,-,N/A,,Overcast,120,2012-11-04 05:58:00
11:58 PM,54.3,54.0,99,30.20,10.0,ESE,2.3,-,N/A,,Overcast,120,2012-11-04 06:58:00